Flag for Norway Weather past 2 weeks in Trondheim, Norway

Now
75 °F

Sunny.


Feels Like: 77 °F
Forecast: 59 / 76 °F
Wind: 8 mph from West

Location: Trondheim / Vaernes

Current Time: Jul 22, 2014 at 12:01:02 PM

Latest Report: Jul 22, 2014 at 11:20 AM


Visibility: 10 mi

Pressure: 30.24 "Hg

Humidity: 61%

Dew point: 61 °F

Location of TrondheimLocation

Historic Weather in Trondheim — Graph

°F

Trondheim temperature yesterday

Maximum temperature yesterday: 88 °F (at 5:50 PM)
Minimum temperature yesterday: 63 °F (at 5:20 AM)
Average temperature yesterday: 75 °F

Past Weeks' High & Low Weather Summary

 TemperatureHumidityPressure
High88 °F (Jul 9, 3:20 PM)100% (Jul 8, 4:20 AM)30.24 "Hg (Jul 8, 4:20 AM)
Low54 °F (Jul 8, 4:20 AM)27% (Jul 13, 3:50 PM)29.65 "Hg (Jul 14, 1:20 PM)
Average69 °F70%30.01 "Hg
* Reported Jul 7 10:20 AM — Jul 22 10:50 AM, Trondheim, Weather by CustomWeather, © 2014

Note: Actual official high and low records may vary slightly from our data, if they occured in-between our weather recording intervals... More about our weather records

Advertising

Trondheim weather history for previous 24 hours

 ConditionsComfort  
Time TempWeatherWind HumidityBarometerVisibility
10:50 AM
Jul 22
73 °FSunny.10 mph61%30.24 "Hg10 mi
10:20 AM73 °FSunny.9 mph65%30.24 "Hg10 mi
9:50 AM75 °FPassing clouds.6 mph57%30.24 "HgN/A
9:20 AM73 °FSunny.2 mph65%30.24 "Hg10 mi
8:50 AM70 °FSunny.5 mph73%30.24 "Hg10 mi
8:20 AM68 °FSunny.6 mph73%30.24 "Hg10 mi
7:50 AM66 °FSunny.9 mph73%30.24 "Hg10 mi
7:20 AM64 °FSunny.10 mph78%30.24 "Hg10 mi
6:50 AM64 °FSunny.10 mph78%30.24 "Hg10 mi
6:20 AM63 °FSunny.9 mph83%30.24 "Hg10 mi
5:50 AM63 °FSunny.9 mph83%30.24 "Hg10 mi
5:20 AM61 °FSunny.9 mph88%30.24 "Hg10 mi
4:50 AM61 °FClear.9 mph88%30.24 "Hg10 mi
3:50 AM63 °FClear.8 mph83%30.24 "Hg10 mi
2:50 AM64 °FClear.8 mph83%30.21 "Hg10 mi
1:50 AM66 °FClear.8 mph78%30.21 "Hg10 mi
1:20 AM66 °FClear.7 mph73%30.21 "Hg10 mi
12:50 AM68 °FClear.6 mph73%30.18 "Hg10 mi
12:20 AM68 °FClear.2 mph69%30.18 "Hg10 mi
11:50 PM
Jul 21
72 °FClear.5 mph57%30.18 "Hg10 mi
11:20 PM72 °FSunny.8 mph65%30.18 "Hg10 mi
10:50 PM73 °FSunny.12 mph61%30.15 "Hg10 mi
10:20 PM73 °FSunny.15 mph61%30.15 "Hg10 mi
9:50 PM75 °FPassing clouds.15 mph61%30.15 "HgN/A
9:20 PM75 °FPassing clouds.14 mph61%30.12 "HgN/A
8:50 PM79 °FPassing clouds.16 mph51%30.12 "HgN/A
8:20 PM79 °FPassing clouds.15 mph54%30.12 "HgN/A
7:50 PM79 °FPassing clouds.16 mph54%30.12 "HgN/A
7:20 PM81 °FPassing clouds.15 mph45%30.12 "HgN/A
6:50 PM86 °FPassing clouds.8 mph38%30.09 "HgN/A
6:20 PM88 °FPassing clouds.6 mph38%30.09 "HgN/A
5:50 PM88 °FPassing clouds.3 mph35%30.09 "HgN/A
5:20 PM84 °FScattered clouds.5 mph40%30.09 "HgN/A
4:50 PM81 °FScattered clouds.7 mph48%30.09 "HgN/A
4:20 PM82 °FScattered clouds.8 mph48%30.09 "HgN/A
3:50 PM81 °FScattered clouds.7 mph51%30.09 "HgN/A
3:20 PM82 °FScattered clouds.7 mph48%30.09 "HgN/A
2:50 PM82 °FPassing clouds.8 mph48%30.12 "HgN/A
2:20 PM86 °FPassing clouds.6 mph35%30.12 "HgN/A
1:50 PM84 °FPassing clouds.5 mph37%30.12 "HgN/A
1:20 PM81 °FSunny.6 mph48%30.12 "Hg10 mi
12:50 PM79 °FPassing clouds.6 mph54%30.12 "HgN/A
12:20 PM77 °FSunny.8 mph57%30.12 "Hg10 mi
Weather by CustomWeather, © 2014

See weather overviewHow to use our weather pages